period_start,C,m1,H,J0,J1,J2,J3,J4,J5,JA,JB,JC,JD,JJ,JK,JN,#
2018-03-01 00:00:59,0.03,0.53,0.00,21.33,25.26,28.51,14.12,46.76,1020.52,2033.90,3271.00,2950.17,3373.03,599.93,601.55,18.58,0000 0000 0000 0000 000000
2018-03-01 00:06:00,0.00,0.53,0.00,21.31,25.25,28.48,14.09,46.78,1020.52,2033.97,3270.97,2950.03,3373.00,600.25,602.10,18.63,0000 0000 0000 0000 000000
2018-03-01 00:11:02,0.01,0.53,0.00,21.30,25.22,28.44,14.05,46.81,1020.52,2033.98,3270.22,2950.00,3372.97,599.65,601.38,18.68,0000 0000 0000 0000 000000
2018-03-01 00:16:03,0.01,0.53,0.00,21.28,25.20,28.45,14.15,46.82,1020.52,2033.98,3269.99,2949.99,3372.77,600.04,601.85,18.73,0000 0000 0000 0000 000000
2018-03-01 00:21:04,0.01,0.53,0.00,21.25,25.18,28.41,14.15,46.81,1020.52,2033.99,3269.88,2949.98,3372.15,600.13,601.87,18.78,0000 0000 0000 0000 000000
2018-03-01 00:26:05,0.01,0.53,0.00,21.25,25.16,28.40,14.13,46.85,1020.52,2033.99,3269.16,2949.95,3372.01,600.19,602.09,18.83,0000 0000 0000 0000 000000
2018-03-01 00:31:06,0.01,0.53,0.00,21.25,25.14,28.35,14.06,46.84,1020.46,2034.00,3269.00,2949.59,3372.00,599.74,601.59,18.88,0000 0000 0000 0000 000000
2018-03-01 00:36:08,0.01,0.53,0.00,21.24,25.12,28.34,14.14,46.92,1020.44,2034.02,3268.82,2949.05,3371.98,600.12,601.89,18.93,0000 0000 0000 0000 000000
2018-03-01 00:41:09,0.01,0.53,0.00,21.22,25.10,28.32,14.12,46.92,1020.37,2034.04,3268.07,2949.00,3371.87,599.84,601.74,18.98,0000 0000 0000 0000 000000
2018-03-01 00:46:10,0.02,0.53,0.00,21.19,25.08,28.29,14.11,47.10,1020.26,2034.13,3267.93,2948.99,3371.31,600.03,601.83,19.03,0000 0000 0000 0000 000000
2018-03-01 00:51:11,0.05,0.54,0.00,21.18,25.07,28.25,14.13,47.13,1020.13,2034.47,3267.14,2948.91,3371.02,599.94,601.74,19.08,0000 0000 0000 0000 000000
2018-03-01 00:56:13,0.04,0.54,0.00,21.19,25.05,28.23,14.14,47.11,1020.04,2034.81,3267.00,2948.39,3370.99,600.27,601.97,19.13,0000 0000 0000 0000 000000
2018-03-01 01:01:14,0.02,0.54,0.00,21.17,25.04,28.22,14.10,47.26,1020.04,2034.95,3266.77,2948.05,3370.93,600.00,601.70,19.18,0000 0000 0000 0000 000000
2018-03-01 01:06:15,0.02,0.54,0.00,21.17,25.02,28.21,14.09,47.19,1020.04,2034.97,3266.05,2948.00,3370.30,599.93,601.66,19.23,0000 0000 0000 0000 000000
2018-03-01 01:11:17,0.00,0.54,0.00,21.15,25.02,28.19,13.98,47.06,1020.03,2034.98,3265.99,2947.98,3370.00,599.59,601.39,19.28,0000 0000 0000 0000 000000
2018-03-01 01:16:18,0.02,0.54,0.00,21.15,25.00,28.18,14.06,47.09,1020.03,2034.98,3265.39,2947.65,3369.88,599.92,601.73,19.33,0000 0000 0000 0000 000000
2018-03-01 01:21:19,0.02,0.54,0.00,21.15,25.00,28.17,14.18,47.23,1020.03,2034.99,3264.99,2947.15,3369.37,600.11,601.96,19.38,0000 0000 0000 0000 000000
2018-03-01 01:26:20,0.01,0.55,0.00,21.14,24.98,28.16,14.11,47.12,1020.02,2034.99,3264.62,2947.00,3369.01,599.84,601.77,19.43,0000 0000 0000 0000 000000
2018-03-01 01:31:21,0.04,0.55,0.00,21.12,24.97,28.18,14.09,46.99,1020.02,2034.98,3264.00,2946.42,3368.17,599.98,601.81,19.48,0000 0000 0000 0000 000000
2018-03-01 01:36:23,0.04,0.55,0.00,21.12,24.97,28.15,14.11,47.04,1019.98,2034.99,3263.09,2945.83,3367.53,600.00,601.82,19.53,0000 0000 0000 0000 000000
2018-03-01 01:41:23,0.05,0.55,0.00,21.14,24.97,28.12,14.09,47.03,1019.76,2034.99,3261.57,2945.02,3366.72,600.28,601.85,19.58,0000 0000 0000 0000 000000
2018-03-01 01:46:25,0.06,0.55,0.00,21.15,24.96,28.13,14.07,46.99,1019.67,2034.99,3260.37,2944.20,3365.55,599.88,601.56,19.63,0000 0000 0000 0000 000000
2018-03-01 01:51:26,0.12,0.56,0.00,21.14,24.95,28.14,14.09,47.03,1019.64,2034.99,3258.10,2942.77,3363.81,600.08,601.65,19.68,0000 0000 0000 0000 000000
2018-03-01 01:56:27,0.09,0.57,0.00,21.15,24.95,28.11,14.01,46.97,1019.57,2034.99,3255.84,2941.43,3362.03,599.66,601.20,19.73,0000 0000 0000 0000 000000
2018-03-01 02:01:29,0.13,0.57,0.00,21.14,24.94,28.14,14.13,46.93,1019.56,2034.99,3253.36,2939.76,3360.20,600.00,601.57,19.78,0000 0000 0000 0000 000000
2018-03-01 02:06:30,0.14,0.58,0.00,21.17,24.92,28.12,14.04,47.03,1019.55,2034.99,3250.07,2937.74,3358.04,599.61,600.86,19.83,0000 0000 0000 0000 000000
2018-03-01 02:11:32,0.12,0.58,0.00,21.18,24.92,28.10,14.09,46.99,1019.55,2035.00,3247.26,2936.01,3356.06,600.17,601.57,19.88,0000 0000 0000 0000 000000
2018-03-01 02:16:33,0.16,0.59,0.00,21.18,24.92,28.07,14.19,47.02,1019.55,2035.00,3243.96,2933.86,3353.47,600.40,601.77,19.93,0000 0000 0000 0000 000000
2018-03-01 02:21:34,0.19,0.60,0.00,21.19,24.91,28.10,14.08,47.02,1019.55,2035.00,3239.56,2931.10,3350.47,599.96,601.35,19.98,0000 0000 0000 0000 000000
2018-03-01 02:26:35,0.17,0.61,0.00,21.20,24.90,28.07,14.03,46.88,1019.55,2035.00,3235.72,2928.65,3347.75,599.79,601.33,20.03,0000 0000 0000 0000 000000
2018-03-01 02:31:36,0.15,0.62,0.00,21.21,24.90,28.07,14.09,47.08,1019.55,2035.00,3232.19,2926.45,3345.20,600.29,601.71,20.08,0000 0000 0000 0000 000000
2018-03-01 02:36:38,0.12,0.63,0.00,21.20,24.89,28.09,13.98,46.91,1019.50,2035.00,3229.41,2924.63,3343.19,599.64,601.06,20.13,0000 0000 0000 0000 000000
2018-03-01 02:41:39,0.10,0.63,0.00,21.22,24.88,28.08,14.07,46.85,1019.35,2035.00,3227.19,2923.23,3341.55,599.91,601.20,20.19,0000 0000 0000 0000 000000
2018-03-01 02:46:40,0.11,0.64,0.00,21.22,24.87,28.08,13.99,46.89,1019.16,2035.01,3224.87,2921.69,3339.85,599.66,600.83,20.24,0000 0000 0000 0000 000000
2018-03-01 02:51:41,0.09,0.64,0.00,21.21,24.87,28.08,14.03,47.02,1019.09,2035.01,3222.73,2920.32,3338.49,599.85,600.96,20.29,0000 0000 0000 0000 000000
2018-03-01 02:56:42,0.02,0.64,0.00,21.22,24.87,28.07,14.15,47.13,1019.08,2035.02,3221.40,2919.91,3337.91,600.20,601.27,20.34,0000 0000 0000 0000 000000
2018-03-01 03:01:44,0.04,0.65,0.00,21.23,24.85,28.06,14.08,47.05,1019.07,2035.03,3220.83,2919.14,3337.11,599.98,600.97,20.39,0000 0000 0000 0000 000000
2018-03-01 03:06:45,0.02,0.65,0.00,21.23,24.85,28.07,14.00,46.94,1019.06,2035.04,3220.06,2918.92,3336.60,599.87,600.94,20.44,0000 0000 0000 0000 000000
2018-03-01 03:11:46,0.04,0.65,0.00,21.22,24.85,28.07,14.02,47.07,1019.06,2035.05,3219.28,2918.12,3336.00,599.62,600.70,20.49,0000 0000 0000 0000 000000
2018-03-01 03:16:47,0.02,0.65,0.00,21.25,24.85,28.06,13.99,46.98,1019.06,2035.05,3218.63,2917.97,3335.37,599.76,600.79,20.54,0000 0000 0000 0000 000000
2018-03-01 03:21:49,0.06,0.65,0.00,21.26,24.85,28.07,14.07,47.02,1019.04,2035.17,3217.69,2917.25,3334.85,599.82,600.85,20.59,0000 0000 0000 0000 000000
2018-03-01 03:26:50,0.07,0.66,0.00,21.27,24.85,28.08,14.04,46.98,1019.01,2035.15,3216.06,2916.33,3333.66,599.82,600.87,20.64,0000 0000 0000 0000 000000
2018-03-01 03:31:51,0.08,0.66,0.00,21.28,24.85,28.08,14.07,47.04,1019.03,2035.19,3214.28,2915.20,3332.39,599.78,600.75,20.69,0000 0000 0000 0000 000000
2018-03-01 03:36:53,0.07,0.67,0.00,21.29,24.85,28.06,13.95,47.05,1019.03,2035.28,3212.75,2914.22,3331.32,599.62,600.53,20.74,0000 0000 0000 0000 000000
2018-03-01 03:41:54,0.07,0.67,0.00,21.30,24.85,28.04,14.10,46.99,1019.00,2035.45,3211.37,2913.29,3330.23,600.46,601.26,20.79,0000 0000 0000 0000 000000
2018-03-01 03:46:56,0.05,0.67,0.00,21.32,24.85,28.06,14.06,47.18,1019.03,2035.32,3209.74,2912.23,3329.06,599.94,600.81,20.84,0000 0000 0000 0000 000000
2018-03-01 03:51:57,0.05,0.68,0.00,21.34,24.85,28.06,14.10,47.09,1019.02,2035.25,3208.41,2911.42,3327.94,600.08,600.89,20.89,0000 0000 0000 0000 000000
2018-03-01 03:56:58,0.08,0.68,0.00,21.37,24.85,28.06,14.14,47.10,1019.00,2035.17,3206.78,2910.24,3326.68,600.03,600.80,20.94,0000 0000 0000 0000 000000
2018-03-01 04:02:00,0.06,0.68,0.00,21.41,24.86,28.07,14.05,47.02,1019.03,2035.17,3205.43,2909.28,3325.60,599.79,600.41,20.99,0000 0000 0000 0000 000000
2018-03-01 04:07:01,0.06,0.69,0.00,21.44,24.87,28.07,14.00,47.13,1019.03,2035.07,3204.02,2908.32,3324.49,599.83,600.38,21.04,0000 0000 0000 0000 000000
2018-03-01 04:12:03,0.06,0.69,0.00,21.44,24.87,28.08,14.08,47.13,1019.03,2035.05,3202.71,2907.50,3323.53,600.11,600.72,21.09,0000 0000 0000 0000 000000
2018-03-01 04:17:04,0.05,0.69,0.00,21.48,24.87,28.10,14.02,47.02,1019.05,2035.04,3201.40,2906.69,3322.64,599.96,600.67,21.14,0000 0000 0000 0000 000000
2018-03-01 04:22:05,0.06,0.69,0.00,21.52,24.87,28.10,14.19,47.08,1019.00,2035.02,3199.97,2905.77,3321.59,600.01,600.40,21.19,0000 0000 0000 0000 000000
2018-03-01 04:27:07,0.04,0.70,0.00,21.53,24.88,28.12,14.04,46.98,1018.99,2035.02,3198.80,2905.01,3320.67,600.33,600.75,21.24,0000 0000 0000 0000 000000
2018-03-01 04:32:08,0.05,0.70,0.00,21.54,24.90,28.13,14.09,47.07,1018.95,2035.04,3197.69,2904.23,3320.00,600.30,600.66,21.29,0000 0000 0000 0000 000000
2018-03-01 04:37:09,0.05,0.70,0.00,21.55,24.90,28.13,14.08,47.10,1018.95,2035.03,3196.56,2903.59,3319.16,600.03,600.32,21.34,0000 0000 0000 0000 000000
2018-03-01 04:42:10,0.05,0.71,0.00,21.58,24.90,28.14,14.10,47.14,1018.94,2035.03,3195.33,2902.77,3318.16,600.03,600.24,21.39,0000 0000 0000 0000 000000
2018-03-01 04:47:12,0.05,0.71,0.00,21.59,24.91,28.14,14.07,47.02,1019.04,2035.04,3194.14,2902.00,3317.29,600.07,600.37,21.44,0000 0000 0000 0000 000000
2018-03-01 04:52:13,0.05,0.71,0.00,21.61,24.92,28.16,13.99,46.98,1019.04,2035.01,3193.18,2901.16,3316.31,599.56,599.83,21.49,0000 0000 0000 0000 000000
2018-03-01 04:57:14,0.05,0.71,0.00,21.62,24.93,28.17,14.04,46.94,1018.91,2035.00,3192.21,2900.62,3315.60,599.93,600.07,21.54,0000 0000 0000 0000 000000
2018-03-01 05:02:15,0.03,0.72,0.00,21.63,24.95,28.20,13.93,47.08,1018.87,2035.00,3191.26,2900.00,3314.79,599.79,599.92,21.59,0000 0000 0000 0000 000000
2018-03-01 05:07:17,0.05,0.72,0.00,21.66,24.96,28.22,14.00,46.93,1018.78,2035.00,3190.23,2899.21,3314.02,599.74,599.76,21.64,0000 0000 0000 0000 000000
2018-03-01 05:12:18,0.04,0.72,0.00,21.67,24.97,28.23,13.99,46.98,1018.66,2035.00,3189.38,2898.78,3313.16,599.94,599.85,21.69,0000 0000 0000 0000 000000
2018-03-01 05:17:20,0.05,0.72,0.00,21.67,24.98,28.24,14.03,47.03,1018.60,2035.00,3188.42,2898.04,3312.39,600.05,600.01,21.74,0000 0000 0000 0000 000000
2018-03-01 05:22:21,0.04,0.73,0.00,21.67,25.00,28.25,14.06,47.06,1018.58,2035.00,3187.38,2897.38,3311.95,599.75,599.63,21.79,0000 0000 0000 0000 000000
2018-03-01 05:27:22,0.03,0.73,0.00,21.67,25.01,28.28,14.10,46.92,1018.59,2035.00,3186.67,2897.00,3311.13,600.32,600.13,21.84,0000 0000 0000 0000 000000
2018-03-01 05:32:24,0.05,0.73,0.00,21.69,25.02,28.27,13.99,46.91,1018.60,2034.99,3185.79,2896.24,3310.46,599.93,599.76,21.89,0000 0000 0000 0000 000000
2018-03-01 05:37:25,0.04,0.73,0.00,21.70,25.02,28.29,14.01,47.02,1018.60,2034.98,3184.75,2895.71,3309.74,599.77,599.63,21.94,0000 0000 0000 0000 000000
2018-03-01 05:42:26,0.03,0.73,0.00,21.72,25.05,28.30,13.94,46.96,1018.58,2034.98,3183.88,2895.01,3308.88,599.82,599.60,21.99,0000 0000 0000 0000 000000
2018-03-01 05:47:28,0.05,0.74,0.00,21.70,25.05,28.33,13.98,46.92,1018.59,2034.96,3183.01,2894.32,3308.06,600.08,599.89,22.04,0000 0000 0000 0000 000000
2018-03-01 05:52:29,0.01,0.74,0.00,21.69,25.06,28.33,13.91,46.93,1018.59,2034.96,3182.25,2894.00,3307.91,599.56,599.63,22.09,0000 0000 0000 0000 000000
2018-03-01 05:57:31,0.03,0.74,0.00,21.69,25.07,28.34,13.91,46.92,1018.58,2034.93,3181.76,2893.66,3307.10,599.53,599.36,22.14,0000 0000 0000 0000 000000
2018-03-01 06:02:32,0.02,0.74,0.00,21.70,25.07,28.34,14.04,46.88,1018.58,2034.88,3181.03,2893.04,3306.92,600.04,599.85,22.19,0000 0000 0000 0000 000000
2018-03-01 06:07:34,0.02,0.74,0.00,21.72,25.09,28.33,14.07,46.91,1018.57,2034.80,3180.49,2892.94,3306.12,600.16,599.94,22.24,0000 0000 0000 0000 000000
2018-03-01 06:12:35,0.02,0.74,0.00,21.73,25.10,28.35,14.08,47.01,1018.57,2034.71,3179.73,2892.17,3305.90,600.13,599.90,22.29,0000 0000 0000 0000 000000
2018-03-01 06:17:36,0.02,0.75,0.00,21.73,25.11,28.36,14.02,46.85,1018.58,2034.65,3179.02,2891.98,3305.10,599.91,599.59,22.34,0000 0000 0000 0000 000000
2018-03-01 06:22:38,0.03,0.75,0.00,21.74,25.12,28.37,14.02,46.88,1018.58,2034.49,3178.30,2891.34,3304.71,600.10,599.75,22.39,0000 0000 0000 0000 000000
2018-03-01 06:27:39,-0.01,0.75,0.00,21.73,25.14,28.37,14.12,46.92,1018.58,2034.22,3177.91,2891.00,3304.02,600.54,600.47,22.44,0000 0000 0000 0000 000000
2018-03-01 06:32:40,0.04,0.75,0.00,21.74,25.15,28.38,13.99,46.93,1018.58,2034.08,3177.06,2890.38,3303.39,600.17,599.91,22.49,0000 0000 0000 0000 000000
2018-03-01 06:37:42,0.02,0.75,0.00,21.76,25.17,28.41,14.01,46.90,1018.58,2034.05,3176.23,2889.98,3302.74,599.94,599.62,22.54,0000 0000 0000 0000 000000
2018-03-01 06:42:43,0.04,0.75,0.00,21.77,25.17,28.41,14.03,46.81,1018.57,2034.02,3175.50,2889.27,3302.03,599.82,599.44,22.59,0000 0000 0000 0000 000000
2018-03-01 06:47:45,0.01,0.75,0.00,21.78,25.19,28.42,14.07,46.82,1018.57,2034.02,3174.99,2889.00,3301.64,600.48,600.04,22.64,0000 0000 0000 0000 000000
2018-03-01 06:52:46,0.05,0.75,0.00,21.77,25.20,28.43,14.04,46.79,1018.57,2034.00,3174.28,2888.43,3300.75,600.25,599.92,22.69,0000 0000 0000 0000 000000
2018-03-01 06:57:47,0.02,0.76,0.00,21.78,25.21,28.43,14.05,46.78,1018.58,2034.00,3173.31,2887.95,3300.02,599.98,599.69,22.74,0000 0000 0000 0000 000000
2018-03-01 07:02:48,0.05,0.76,0.00,21.78,25.22,28.45,13.96,46.82,1018.57,2034.00,3172.40,2887.16,3299.36,599.81,599.61,22.79,0000 0000 0000 0000 000000
2018-03-01 07:07:50,0.02,0.76,0.00,21.80,25.22,28.45,14.03,46.86,1018.57,2034.00,3171.61,2886.85,3298.94,600.18,599.82,22.84,0000 0000 0000 0000 000000
2018-03-01 07:12:50,0.04,0.76,0.00,21.80,25.22,28.46,14.08,46.85,1018.57,2034.00,3170.82,2886.09,3298.21,599.63,599.24,22.89,0000 0000 0000 0000 000000
2018-03-01 07:17:52,0.03,0.76,0.00,21.82,25.23,28.47,14.05,46.84,1018.57,2034.00,3170.02,2885.83,3297.47,599.78,599.33,22.94,0000 0000 0000 0000 000000
2018-03-01 07:22:53,0.04,0.77,0.00,21.82,25.24,28.49,14.04,46.73,1018.57,2033.99,3169.06,2885.06,3296.96,599.93,599.35,22.99,0000 0000 0000 0000 000000
2018-03-01 07:27:54,0.05,0.77,0.00,21.82,25.24,28.47,14.00,46.95,1018.57,2033.98,3168.06,2884.51,3296.18,599.85,599.44,23.04,0000 0000 0000 0000 000000
2018-03-01 07:32:55,0.03,0.77,0.00,21.81,25.24,28.49,14.03,46.83,1018.57,2033.99,3167.49,2884.00,3295.60,600.23,599.82,23.09,0000 0000 0000 0000 000000
2018-03-01 07:37:57,0.04,0.77,0.00,21.81,25.24,28.49,14.07,46.82,1018.55,2033.98,3166.21,2883.37,3294.97,600.06,599.63,23.14,0000 0000 0000 0000 000000
2018-03-01 07:42:58,0.03,0.78,0.00,21.80,25.24,28.50,13.98,46.78,1018.56,2033.98,3165.16,2882.96,3294.17,599.97,599.68,23.19,0000 0000 0000 0000 000000
2018-03-01 07:47:59,0.05,0.78,0.00,21.81,25.24,28.50,14.01,46.74,1018.57,2033.98,3164.38,2882.16,3293.62,599.99,599.62,23.24,0000 0000 0000 0000 000000
2018-03-01 07:53:00,0.02,0.78,0.00,21.80,25.25,28.51,14.05,46.72,1018.57,2033.99,3163.67,2881.88,3292.94,599.97,599.57,23.29,0000 0000 0000 0000 000000
2018-03-01 07:58:02,0.06,0.78,0.00,21.80,25.25,28.51,14.01,46.63,1018.57,2033.98,3162.50,2881.05,3291.99,600.02,599.57,23.35,0000 0000 0000 0000 000000
2018-03-01 08:03:03,0.07,0.79,0.00,21.79,25.25,28.52,14.02,46.62,1018.54,2033.96,3161.14,2880.10,3290.82,599.68,599.41,23.40,0000 0000 0000 0000 000000
2018-03-01 08:08:04,0.09,0.79,0.00,21.78,25.25,28.52,13.99,46.58,1018.47,2033.95,3159.17,2879.00,3289.42,599.85,599.36,23.45,0000 0000 0000 0000 000000
2018-03-01 08:13:05,0.10,0.79,0.00,21.78,25.24,28.51,14.09,46.63,1018.28,2033.96,3157.00,2877.78,3288.02,600.17,599.58,23.50,0000 0000 0000 0000 000000
2018-03-01 08:18:07,0.11,0.80,0.00,21.77,25.24,28.51,14.04,46.63,1018.46,2033.95,3154.53,2876.37,3286.43,600.49,600.09,23.55,0000 0000 0000 0000 000000
2018-03-01 08:23:08,0.12,0.81,0.00,21.77,25.24,28.52,14.10,46.67,1018.53,2033.96,3152.02,2874.88,3284.82,600.16,599.93,23.60,0000 0000 0000 0000 000000
2018-03-01 08:28:09,0.13,0.81,0.00,21.75,25.23,28.52,14.07,46.65,1018.49,2033.97,3149.06,2873.17,3282.93,600.09,599.71,23.65,0000 0000 0000 0000 000000
2018-03-01 08:33:10,0.08,0.82,0.00,21.74,25.23,28.52,14.05,46.78,1018.25,2033.98,3146.87,2871.84,3281.49,600.03,599.76,23.70,0000 0000 0000 0000 000000
2018-03-01 08:38:12,0.17,0.82,0.00,21.74,25.23,28.51,14.05,46.67,1018.26,2033.99,3143.60,2869.93,3279.24,600.03,599.54,23.75,0000 0000 0000 0000 000000
2018-03-01 08:43:13,0.14,0.83,0.00,21.75,25.23,28.52,14.08,46.59,1018.33,2033.99,3140.19,2867.84,3276.75,600.06,599.65,23.80,0000 0000 0000 0000 000000
2018-03-01 08:48:14,0.14,0.84,0.00,21.74,25.23,28.53,14.06,46.71,1018.45,2033.98,3137.13,2866.05,3274.67,600.42,600.07,23.85,0000 0000 0000 0000 000000
2018-03-01 08:53:16,0.22,0.85,0.00,21.74,25.23,28.49,14.10,46.89,1018.55,2033.98,3132.83,2863.42,3271.79,600.09,599.74,23.90,0000 0000 0000 0000 000000
2018-03-01 08:58:17,0.21,0.86,0.00,21.73,25.23,28.51,14.00,46.77,1018.55,2033.97,3128.11,2860.62,3268.58,599.59,599.33,23.95,0000 0000 0000 0000 000000
2018-03-01 09:03:18,0.19,0.87,0.00,21.71,25.22,28.50,14.00,46.74,1018.51,2033.96,3123.77,2857.96,3265.49,600.08,599.80,24.00,0000 0000 0000 0000 000000
2018-03-01 09:08:19,0.23,0.88,0.00,21.70,25.22,28.51,14.04,46.80,1018.57,2033.94,3118.82,2854.98,3262.27,600.53,600.22,24.05,0000 0000 0000 0000 000000
2018-03-01 09:13:21,0.18,0.89,0.00,21.69,25.22,28.50,14.10,46.81,1018.55,2033.82,3114.31,2852.29,3259.22,600.20,599.99,24.10,0000 0000 0000 0000 000000
2018-03-01 09:18:22,0.20,0.90,0.00,21.68,25.22,28.50,14.05,46.72,1018.55,2033.87,3109.94,2849.72,3256.35,600.21,600.05,24.15,0000 0000 0000 0000 000000
2018-03-01 09:23:24,0.13,0.91,0.00,21.66,25.22,28.50,14.06,46.85,1018.31,2033.84,3106.67,2847.76,3254.18,600.16,599.77,24.20,0000 0000 0000 0000 000000
2018-03-01 09:28:25,0.15,0.92,0.00,21.64,25.22,28.51,14.03,46.59,1018.09,2033.82,3103.46,2845.73,3251.71,599.91,599.58,24.25,0000 0000 0000 0000 000000
2018-03-01 09:33:26,0.10,0.92,0.00,21.64,25.21,28.49,14.01,46.69,1018.10,2033.55,3100.37,2843.95,3249.68,599.84,599.49,24.30,0000 0000 0000 0000 000000
2018-03-01 09:38:28,0.13,0.93,0.00,21.63,25.20,28.49,14.04,46.62,1018.09,2033.56,3097.35,2842.26,3247.89,600.16,599.85,24.35,0000 0000 0000 0000 000000
2018-03-01 09:43:29,0.12,0.94,0.00,21.61,25.20,28.49,13.95,46.67,1018.09,2033.77,3094.80,2840.77,3246.24,599.54,599.26,24.40,0000 0000 0000 0000 000000
2018-03-01 09:48:30,0.13,0.94,0.00,21.60,25.19,28.48,14.02,46.76,1018.09,2033.74,3091.97,2839.16,3244.40,599.96,599.69,24.45,0000 0000 0000 0000 000000
2018-03-01 09:53:32,0.23,0.95,0.00,21.58,25.17,28.46,14.01,46.74,1018.08,2033.83,3087.60,2836.54,3241.48,599.84,599.61,24.50,0000 0000 0000 0000 000000
2018-03-01 09:58:33,0.27,0.97,0.00,21.57,25.17,28.48,14.04,46.75,1018.08,2033.93,3082.11,2833.32,3237.80,600.01,599.80,24.55,0000 0000 0000 0000 000000
2018-03-01 10:03:34,0.24,0.98,0.00,21.55,25.17,28.45,13.98,46.79,1018.08,2033.94,3076.67,2830.14,3234.31,599.65,599.50,24.60,0000 0000 0000 0000 000000
2018-03-01 10:08:35,0.25,0.99,0.00,21.55,25.15,28.42,14.05,46.73,1018.08,2033.94,3071.37,2826.97,3230.66,600.04,599.92,24.65,0000 0000 0000 0000 000000
2018-03-01 10:13:36,0.27,1.00,0.00,21.53,25.15,28.43,14.08,46.80,1018.08,2033.96,3065.63,2823.60,3226.88,600.09,599.98,24.70,0000 0000 0000 0000 000000
2018-03-01 10:18:38,0.30,1.02,0.00,21.52,25.14,28.42,13.99,46.67,1018.06,2033.97,3059.27,2819.76,3222.51,600.07,599.85,24.75,0000 0000 0000 0000 000000
2018-03-01 10:23:39,0.29,1.03,0.00,21.50,25.12,28.43,14.07,46.74,1018.00,2033.97,3052.92,2816.04,3218.21,600.06,599.85,24.80,0000 0000 0000 0000 000000
2018-03-01 10:28:40,0.23,1.05,0.00,21.48,25.12,28.40,14.03,46.59,1017.79,2033.96,3047.38,2812.85,3214.57,600.24,600.09,24.85,0000 0000 0000 0000 000000
2018-03-01 10:33:42,0.12,1.06,0.00,21.46,25.11,28.40,13.96,46.72,1017.66,2033.97,3044.02,2810.98,3212.48,599.85,599.62,24.90,0000 0000 0000 0000 000000
2018-03-01 10:38:43,0.06,1.06,0.00,21.44,25.10,28.36,14.06,46.74,1017.61,2033.98,3042.43,2810.00,3211.41,600.02,599.83,24.95,0000 0000 0000 0000 000000
2018-03-01 10:43:45,0.07,1.06,0.00,21.43,25.08,28.37,14.06,46.91,1017.60,2033.99,3040.81,2809.11,3210.47,600.24,600.11,25.00,0000 0000 0000 0000 000000
2018-03-01 10:48:46,0.08,1.07,0.00,21.41,25.07,28.38,14.05,46.76,1017.61,2033.99,3039.32,2808.10,3209.11,600.16,599.97,25.05,0000 0000 0000 0000 000000
2018-03-01 10:53:47,0.13,1.07,0.00,21.39,25.07,28.34,14.04,46.77,1017.62,2033.99,3036.67,2806.60,3207.41,599.74,599.61,25.10,0000 0000 0000 0000 000000
2018-03-01 10:58:49,0.08,1.08,0.00,21.40,25.05,28.34,14.05,46.88,1017.61,2033.99,3034.47,2805.35,3206.18,600.06,599.81,25.15,0000 0000 0000 0000 000000
2018-03-01 11:03:50,0.04,1.08,0.00,21.39,25.05,28.32,14.00,46.89,1017.61,2033.99,3033.12,2804.83,3205.28,599.65,599.52,25.20,0000 0000 0000 0000 000000
2018-03-01 11:08:52,0.05,1.08,0.00,21.35,25.03,28.31,14.05,46.90,1017.62,2034.00,3031.99,2804.01,3204.61,599.83,599.83,25.25,0000 0000 0000 0000 000000
2018-03-01 11:13:53,0.08,1.09,0.00,21.34,25.02,28.30,14.07,46.88,1017.60,2034.01,3030.56,2803.06,3203.44,599.88,599.65,25.30,0000 0000 0000 0000 000000
2018-03-01 11:18:55,0.07,1.09,0.00,21.33,25.01,28.28,13.98,46.95,1017.60,2034.01,3028.81,2802.09,3202.29,599.86,599.77,25.35,0000 0000 0000 0000 000000
2018-03-01 11:23:56,0.07,1.10,0.00,21.31,25.00,28.27,14.08,46.87,1017.59,2034.02,3027.47,2801.20,3201.24,600.10,600.06,25.40,0000 0000 0000 0000 000000
2018-03-01 11:28:58,0.05,1.10,0.00,21.28,24.99,28.25,13.99,46.92,1017.59,2034.01,3026.26,2800.58,3200.23,599.68,599.78,25.45,0000 0000 0000 0000 000000
2018-03-01 11:33:59,0.03,1.10,0.00,21.26,24.97,28.26,14.04,46.92,1017.59,2034.02,3025.22,2800.01,3199.83,599.97,600.18,25.50,0000 0000 0000 0000 000000
2018-03-01 11:39:01,0.05,1.10,0.00,21.23,24.97,28.24,14.05,46.90,1017.59,2034.08,3024.17,2799.46,3199.09,599.98,600.15,25.55,0000 0000 0000 0000 000000
2018-03-01 11:44:02,0.04,1.11,0.00,21.23,24.95,28.23,14.08,46.95,1017.59,2034.27,3023.36,2799.01,3198.98,600.18,600.30,25.60,0000 0000 0000 0000 000000
2018-03-01 11:49:03,0.06,1.11,0.00,21.21,24.95,28.23,14.05,46.85,1017.59,2034.49,3022.60,2798.67,3198.34,600.03,600.27,25.65,0000 0000 0000 0000 000000
2018-03-01 11:54:04,0.06,1.11,0.00,21.20,24.92,28.18,14.07,46.92,1017.59,2034.87,3022.01,2798.05,3198.00,600.32,600.48,25.70,0000 0000 0000 0000 000000
2018-03-01 11:59:06,0.02,1.11,0.00,21.19,24.92,28.17,14.06,46.96,1017.59,2034.95,3021.44,2798.00,3197.66,599.85,600.15,25.75,0000 0000 0000 0000 000000
2018-03-01 12:04:07,0.02,1.12,0.00,21.17,24.90,28.17,14.08,46.90,1017.57,2034.96,3021.00,2797.72,3197.03,599.86,600.21,25.81,0000 0000 0000 0000 000000
2018-03-01 12:09:08,0.03,1.12,0.00,21.15,24.90,28.14,14.10,46.94,1017.52,2034.98,3020.21,2797.07,3196.91,600.04,600.38,25.86,0000 0000 0000 0000 000000
2018-03-01 12:14:09,0.02,1.12,0.00,21.12,24.88,28.14,14.11,46.98,1017.51,2034.98,3019.66,2796.99,3196.13,599.72,600.12,25.91,0000 0000 0000 0000 000000
2018-03-01 12:19:10,0.03,1.12,0.00,21.14,24.87,28.12,14.02,46.87,1017.51,2034.99,3018.96,2796.40,3195.96,599.93,600.40,25.96,0000 0000 0000 0000 000000
2018-03-01 12:24:11,0.03,1.12,0.00,21.10,24.86,28.09,14.07,46.98,1017.55,2034.99,3018.13,2796.01,3195.30,600.10,600.60,26.01,0000 0000 0000 0000 000000
2018-03-01 12:29:12,0.02,1.12,0.00,21.09,24.85,28.11,14.00,46.94,1017.48,2034.99,3017.46,2795.88,3195.00,599.96,600.47,26.06,0000 0000 0000 0000 000000
2018-03-01 12:34:14,0.03,1.13,0.00,21.08,24.83,28.07,13.98,46.88,1017.43,2034.99,3016.97,2795.19,3194.61,599.87,600.21,26.11,0000 0000 0000 0000 000000
2018-03-01 12:39:16,0.02,1.13,0.00,21.06,24.82,28.06,14.03,46.93,1017.33,2034.99,3016.57,2795.00,3194.01,599.81,600.32,26.16,0000 0000 0000 0000 000000
2018-03-01 12:44:17,0.04,1.13,0.00,21.05,24.80,28.05,14.13,46.98,1017.24,2035.00,3015.65,2794.67,3193.65,600.52,600.84,26.21,0000 0000 0000 0000 000000
2018-03-01 12:49:18,0.14,1.13,0.00,21.03,24.80,28.02,14.06,46.77,1017.20,2035.01,3013.78,2793.10,3191.50,599.99,600.22,26.26,0000 0000 0000 0000 000000
2018-03-01 12:54:20,0.10,1.14,0.00,21.02,24.78,28.01,14.03,46.74,1017.15,2035.01,3011.42,2791.43,3189.56,599.92,600.31,26.31,0000 0000 0000 0000 000000